TimeMDT,TemperatureF,Dew PointF,Humidity,Sea Level PressureIn,VisibilityMPH,Wind Direction,Wind SpeedMPH,Gust SpeedMPH,PrecipitationIn,Events,Conditions,WindDirDegrees,DateUTC
12:12 AM,35.6,28.4,75,29.96,10.0,Variable,5.8,-,N/A,,Overcast,0,2013-04-22 06:12:00
12:53 AM,30.9,23.0,72,29.94,10.0,North,11.5,-,0.00,,Overcast,360,2013-04-22 06:53:00
1:53 AM,28.9,23.0,78,29.96,10.0,North,4.6,-,0.00,,Overcast,360,2013-04-22 07:53:00
2:53 AM,28.9,21.0,72,30.00,10.0,NE,9.2,-,N/A,,Overcast,50,2013-04-22 08:53:00
3:53 AM,26.1,21.0,81,30.02,10.0,ENE,11.5,-,0.00,,Overcast,60,2013-04-22 09:53:00
4:40 AM,24.8,21.2,86,30.05,4.0,East,3.5,-,0.00,Snow,Light Snow,100,2013-04-22 10:40:00
4:43 AM,24.8,21.2,86,30.05,2.5,East,3.5,-,0.00,Snow,Light Snow,90,2013-04-22 10:43:00
4:53 AM,26.1,23.0,88,30.03,1.8,ESE,4.6,-,0.01,Snow,Light Snow,110,2013-04-22 10:53:00
5:05 AM,24.8,23.0,93,30.05,2.0,ESE,9.2,-,0.01,Snow,Light Snow,110,2013-04-22 11:05:00
5:18 AM,24.8,21.2,86,30.05,4.0,East,8.1,-,0.01,Snow,Light Snow,100,2013-04-22 11:18:00
5:30 AM,24.8,21.2,86,30.05,3.0,East,6.9,-,0.02,Snow,Light Snow,100,2013-04-22 11:30:00
5:39 AM,24.8,21.2,86,30.05,3.0,East,9.2,-,0.02,Snow,Light Snow,90,2013-04-22 11:39:00
5:48 AM,24.8,21.2,86,30.06,2.5,East,8.1,-,0.02,Snow,Light Snow,80,2013-04-22 11:48:00
5:53 AM,25.0,21.9,88,30.05,2.0,East,5.8,-,0.02,Snow,Light Snow,80,2013-04-22 11:53:00
6:13 AM,24.8,21.2,86,30.06,4.0,East,12.7,-,0.00,Snow,Light Snow,80,2013-04-22 12:13:00
6:33 AM,24.8,21.2,86,30.07,1.8,ENE,13.8,-,0.01,Snow,Light Snow,70,2013-04-22 12:33:00
6:53 AM,23.0,21.0,92,30.10,1.0,NE,9.2,-,0.02,Snow,Light Snow,50,2013-04-22 12:53:00
7:14 AM,23.0,21.2,93,30.09,0.8,NE,8.1,-,0.00,Snow,Light Snow,50,2013-04-22 13:14:00
7:48 AM,23.0,21.2,93,30.11,0.5,NE,8.1,-,0.02,Fog-Snow,Snow,40,2013-04-22 13:48:00
7:53 AM,23.0,21.0,92,30.15,0.2,NE,11.5,-,0.02,Fog-Snow,Snow,40,2013-04-22 13:53:00
8:35 AM,23.0,21.2,93,30.13,0.8,NE,3.5,-,0.02,Snow,Light Snow,50,2013-04-22 14:35:00
8:51 AM,23.0,19.4,86,30.13,1.0,NNE,4.6,-,0.02,Snow,Light Snow,20,2013-04-22 14:51:00
8:53 AM,23.0,19.9,88,30.17,1.0,North,4.6,-,0.02,Snow,Light Snow,10,2013-04-22 14:53:00
9:03 AM,24.8,19.4,80,30.14,0.8,NNE,3.5,-,0.00,Snow,Light Snow,30,2013-04-22 15:03:00
9:20 AM,23.0,19.4,86,30.14,0.2,NNE,6.9,-,0.01,Fog-Snow,Snow,30,2013-04-22 15:20:00
9:36 AM,23.0,19.4,86,30.16,0.2,NNE,10.4,-,0.02,Fog-Snow,Heavy Snow,20,2013-04-22 15:36:00
9:53 AM,23.0,19.9,88,30.20,0.2,NNE,4.6,-,0.05,Fog-Snow,Snow,20,2013-04-22 15:53:00
10:10 AM,24.8,21.2,86,30.17,0.8,ENE,3.5,-,0.00,Snow,Light Snow,70,2013-04-22 16:10:00
10:20 AM,24.8,21.2,86,30.17,0.8,ENE,6.9,-,0.00,Snow,Light Snow,60,2013-04-22 16:20:00
11:05 AM,24.8,21.2,86,30.18,0.2,ENE,9.2,-,0.01,Fog-Snow,Heavy Snow,60,2013-04-22 17:05:00
11:23 AM,24.8,19.4,80,30.19,0.8,NNE,11.5,-,0.02,Snow,Light Snow,20,2013-04-22 17:23:00
11:30 AM,24.8,19.4,80,30.19,1.2,NNE,10.4,-,0.02,Snow,Light Snow,20,2013-04-22 17:30:00
11:43 AM,24.8,21.2,86,30.19,0.5,NNE,11.5,-,0.03,Fog-Snow,Snow,20,2013-04-22 17:43:00
11:53 AM,24.1,19.9,84,30.28,0.8,NNE,12.7,-,0.03,Snow,Light Snow,20,2013-04-22 17:53:00
12:01 PM,24.8,21.2,86,30.20,1.0,NNE,12.7,-,0.00,Snow,Light Snow,20,2013-04-22 18:01:00
12:09 PM,24.8,19.4,80,30.20,0.5,NNE,13.8,-,0.00,Fog-Snow,Snow,20,2013-04-22 18:09:00
12:42 PM,24.8,21.2,86,30.20,1.0,NE,10.4,-,0.01,Snow,Light Snow,50,2013-04-22 18:42:00
12:49 PM,26.6,21.2,80,30.20,1.0,NNE,8.1,-,0.01,Snow,Light Snow,30,2013-04-22 18:49:00
12:53 PM,26.1,19.9,78,30.29,1.5,NE,8.1,-,0.01,Snow,Light Snow,40,2013-04-22 18:53:00
12:56 PM,26.6,21.2,80,30.20,3.0,NE,10.4,-,0.00,Snow,Light Snow,40,2013-04-22 18:56:00
1:01 PM,26.6,19.4,74,30.20,1.2,NNE,13.8,18.4,0.00,Snow,Light Snow,30,2013-04-22 19:01:00
1:09 PM,24.8,19.4,80,30.20,0.5,NE,9.2,-,0.00,Snow,Snow,40,2013-04-22 19:09:00
1:15 PM,24.8,21.2,86,30.20,1.0,NNE,11.5,-,0.00,Snow,Light Snow,30,2013-04-22 19:15:00
1:36 PM,26.6,21.2,80,30.19,0.8,NE,10.4,-,0.01,Snow,Light Snow,40,2013-04-22 19:36:00
1:48 PM,26.1,19.9,78,30.29,1.0,NE,12.7,-,0.01,Snow,Light Snow,40,2013-04-22 19:48:00
1:59 PM,24.8,19.4,80,30.20,0.5,NNE,16.1,-,0.00,Snow,Snow,30,2013-04-22 19:59:00
2:13 PM,24.8,19.4,80,30.21,0.2,ENE,11.5,-,0.01,Fog-Snow,Heavy Snow,60,2013-04-22 20:13:00
2:39 PM,24.8,19.4,80,30.21,2.0,NE,6.9,-,0.05,Snow,Light Snow,50,2013-04-22 20:39:00
2:50 PM,24.8,19.4,80,30.21,1.0,North,8.1,-,0.05,Snow,Light Snow,10,2013-04-22 20:50:00
2:53 PM,24.1,21.0,88,30.31,1.0,North,9.2,-,0.05,Snow,Light Snow,10,2013-04-22 20:53:00
3:08 PM,24.8,21.2,86,30.20,0.5,NNE,10.4,-,0.00,Fog-Snow,Light Snow,20,2013-04-22 21:08:00
3:21 PM,24.8,21.2,86,30.21,1.2,NE,12.7,-,0.01,Snow,Light Snow,40,2013-04-22 21:21:00
3:31 PM,24.8,19.4,80,30.21,2.0,NNE,13.8,-,0.01,Snow,Light Snow,30,2013-04-22 21:31:00
3:38 PM,24.8,19.4,80,30.21,2.0,NE,12.7,-,0.01,Snow,Light Snow,40,2013-04-22 21:38:00
3:53 PM,25.0,19.9,81,30.32,1.2,NE,11.5,-,0.01,Snow,Light Snow,40,2013-04-22 21:53:00
3:58 PM,24.8,19.4,80,30.21,0.8,NNE,11.5,-,0.00,Snow,Light Snow,30,2013-04-22 21:58:00
4:17 PM,24.8,19.4,80,30.21,0.8,ENE,11.5,-,0.00,Snow,Light Snow,70,2013-04-22 22:17:00
4:38 PM,24.8,19.4,80,30.22,1.0,ENE,9.2,-,0.01,Snow,Light Snow,70,2013-04-22 22:38:00
4:45 PM,24.8,19.4,80,30.22,0.5,East,9.2,-,0.01,Fog-Snow,Light Snow,100,2013-04-22 22:45:00
4:53 PM,24.1,21.0,88,30.34,0.2,East,10.4,-,0.02,Fog-Snow,Light Snow,80,2013-04-22 22:53:00
5:18 PM,24.8,19.4,80,30.22,0.8,ENE,9.2,-,0.01,Snow,Light Snow,70,2013-04-22 23:18:00
5:29 PM,24.8,19.4,80,30.22,1.0,East,8.1,-,0.01,Snow,Light Snow,90,2013-04-22 23:29:00
5:42 PM,24.8,19.4,80,30.22,0.5,East,9.2,-,0.02,Fog-Snow,Light Snow,80,2013-04-22 23:42:00
5:53 PM,24.1,19.0,81,30.34,0.8,East,4.6,-,0.02,Snow,Light Snow,90,2013-04-22 23:53:00
6:01 PM,24.8,19.4,80,30.22,1.2,ENE,6.9,-,0.00,Snow,Light Snow,70,2013-04-23 00:01:00
6:25 PM,24.8,19.4,80,30.23,0.5,Calm,Calm,-,0.00,Fog-Snow,Snow,0,2013-04-23 00:25:00
6:35 PM,23.0,19.4,86,30.23,0.2,North,4.6,-,0.01,Fog-Snow,Snow,10,2013-04-23 00:35:00
6:46 PM,23.0,19.4,86,30.23,0.2,North,4.6,-,0.02,Fog-Snow,Heavy Snow,360,2013-04-23 00:46:00
6:53 PM,23.0,19.9,88,30.37,0.2,North,5.8,-,0.03,Fog-Snow,Snow,360,2013-04-23 00:53:00
7:03 PM,23.0,19.4,86,30.23,1.0,NNE,4.6,-,0.00,Snow,Light Snow,30,2013-04-23 01:03:00
7:14 PM,23.0,19.4,86,30.24,2.5,NE,4.6,-,0.00,,Overcast,50,2013-04-23 01:14:00
7:21 PM,23.0,17.6,80,30.24,6.0,NE,4.6,-,0.00,,Haze,40,2013-04-23 01:21:00
7:51 PM,23.0,17.6,80,30.24,1.8,ENE,8.1,-,0.00,,Haze,60,2013-04-23 01:51:00
7:53 PM,23.0,18.0,81,30.39,1.2,ENE,6.9,-,0.00,Snow,Light Snow,60,2013-04-23 01:53:00
8:01 PM,23.0,19.4,86,30.25,1.2,ENE,6.9,-,0.00,Snow,Light Snow,60,2013-04-23 02:01:00
8:13 PM,23.0,19.4,86,30.25,0.8,ENE,5.8,-,0.01,Snow,Light Snow,60,2013-04-23 02:13:00
8:20 PM,23.0,19.4,86,30.25,1.2,East,4.6,-,0.01,Snow,Light Snow,90,2013-04-23 02:20:00
8:27 PM,21.2,19.4,93,30.25,0.8,East,4.6,-,0.01,Snow,Light Snow,80,2013-04-23 02:27:00
8:53 PM,21.9,19.9,92,30.40,0.5,East,4.6,-,0.03,Fog-Snow,Snow,80,2013-04-23 02:53:00
9:11 PM,21.2,19.4,93,30.27,0.8,East,11.5,-,0.00,Snow,Light Snow,80,2013-04-23 03:11:00
9:22 PM,21.2,19.4,93,30.27,1.0,SE,8.1,-,0.01,Snow,Light Snow,130,2013-04-23 03:22:00
9:30 PM,21.2,19.4,93,30.27,3.0,SE,6.9,-,0.01,Snow,Light Snow,130,2013-04-23 03:30:00
9:38 PM,21.2,19.4,93,30.27,2.5,SE,8.1,-,0.01,Snow,Light Snow,130,2013-04-23 03:38:00
9:47 PM,21.2,17.6,86,30.28,3.0,SE,5.8,-,0.01,Snow,Light Snow,130,2013-04-23 03:47:00
9:53 PM,21.0,18.0,88,30.43,2.5,SE,5.8,-,0.01,Snow,Light Snow,130,2013-04-23 03:53:00
10:03 PM,21.2,17.6,86,30.28,1.2,SE,4.6,-,0.00,Snow,Light Snow,140,2013-04-23 04:03:00
10:35 PM,19.4,17.6,93,30.28,2.0,Calm,Calm,-,0.01,Snow,Light Snow,0,2013-04-23 04:35:00
10:43 PM,19.4,17.6,93,30.28,1.5,Calm,Calm,-,0.01,Snow,Light Snow,0,2013-04-23 04:43:00
10:53 PM,19.9,18.0,92,30.42,1.5,Calm,Calm,-,0.01,Snow,Light Snow,0,2013-04-23 04:53:00
11:21 PM,19.4,17.6,93,30.27,2.5,NE,3.5,-,0.00,Snow,Light Snow,40,2013-04-23 05:21:00
11:44 PM,19.4,17.6,93,30.27,2.0,ENE,3.5,-,0.00,Snow,Light Snow,70,2013-04-23 05:44:00
11:53 PM,19.9,17.1,89,30.42,2.0,East,4.6,-,0.00,Snow,Light Snow,90,2013-04-23 05:53:00